Tracking 19181 objects as of 17-Jun-2018
HD Live streaming from Space Station
objects crossing your sky now

FENGYUN 1C DEB

Track FENGYUN 1C DEB now!
10-day predictions


NORAD ID: 31497
Int'l Code: 1999-025BWL
Perigee: 654.5 km
Apogee: 904.5 km
Inclination: 98.4 °
Period: 100.3 minutes
Semi major axis: 7150 km
RCS: 0.0104 m2 (small)
Launch date: May 10, 1999
Source: People's Republic of China (PRC)
Launch site: Taiyaun Space Center, China (TSC)

Note: This is SATELLITE DEBRIS
aabbcc
Your satellite tracking list
Your tracking list is empty




NASA's NSSDC Master Catalog

Two Line Element Set (TLE):
1 31497U 99025BWL 18167.89476074 +.00000048 +00000-0 +28589-4 0  9995
2 31497 098.3969 201.8226 0174836 255.7222 230.4157 14.35805070583578
Source of the keplerian elements: AFSPC